Theta_e
316 315 314 314 314 315 313 313 314 315 315 315 315 314 314 316 315 315 316 314 315 315 314 314 314 316 316 315 316 315 312 312 313 312 313 312 311 312 313 311 311 312 313 314 314
315 314 314 314 315 315 313 313 314 314 315 317 316 316 315 316 315 316 314 315 315 315 314 314 315 315 316 314 315 311 311 312 310 310 312 311 310 311 311 310 310 312 314 313 313
315 314 314 314 315 315 313 313 314 315 315 316 316 316 316 316 316 314 316 316 315 315 315 314 314 315 315 313 312 311 312 310 311 313 312 311 310 311 308 310 314 314 314 313 313
318 315 315 315 315 315 314 314 314 316 315 318 318 316 316 315 314 315 317 318 318 317 315 314 314 315 311 312 312 312 311 311 311 312 312 310 311 309 310 314 315 313 312 313 314
319 317 316 315 315 315 314 314 315 317 316 319 318 316 316 316 316 316 318 318 316 316 317 316 314 314 314 311 310 309 309 310 310 309 309 310 309 308 309 314 313 313 314 314 314
320 318 316 315 315 315 315 315 316 318 317 320 318 316 317 315 316 317 318 315 312 313 315 315 314 315 313 310 310 309 308 308 310 310 308 308 309 308 313 312 314 314 314 313 312
321 318 316 315 315 315 315 316 318 319 317 320 317 316 317 316 317 318 317 314 311 311 313 314 315 314 314 311 310 308 307 307 311 309 309 307 308 306 313 313 313 312 312 312 307
320 318 316 315 314 315 316 317 320 320 318 318 317 317 316 316 317 314 314 314 313 312 312 312 311 312 311 310 308 308 308 312 311 308 312 312 313 311 313 312 312 312 312 308 305
320 318 315 314 314 315 316 319 320 320 319 319 316 316 317 317 315 310 311 314 314 312 312 312 311 310 309 308 310 308 313 311 310 308 308 311 312 310 312 311 311 311 307 306 301
320 318 315 314 314 316 315 318 319 318 318 318 316 315 316 316 315 311 312 313 313 311 312 313 311 307 306 310 314 313 310 310 309 309 308 309 311 311 309 308 310 307 306 302 301
321 317 314 313 314 315 316 317 314 314 315 315 314 314 316 314 315 312 313 314 311 310 309 309 306 311 311 309 309 309 309 309 310 309 310 310 310 309 306 307 306 303 304 301 300
320 316 313 313 313 311 312 307 305 308 313 315 315 317 316 314 313 311 313 312 310 310 309 309 307 310 308 308 310 310 309 310 310 310 310 309 309 307 304 305 302 301 302 299 300
318 316 313 313 313 309 308 305 304 308 312 313 315 316 314 313 311 312 312 312 310 312 310 310 309 308 310 310 311 309 309 309 309 308 306 306 304 304 305 304 300 298 299 297 299
318 315 313 310 309 308 306 304 304 311 309 311 314 314 314 310 309 311 311 311 311 312 309 307 308 310 309 310 308 311 308 307 306 303 304 303 303 305 305 304 300 296 298 296 297
316 313 311 311 306 305 305 304 306 309 318 312 314 313 312 309 309 310 310 309 309 308 304 301 309 308 309 308 308 309 306 305 304 304 302 303 305 305 303 300 299 296 296 296 297
314 312 309 306 306 305 305 304 309 314 319 312 313 310 310 306 308 310 310 306 307 306 305 304 305 306 307 307 305 304 302 303 304 302 306 304 299 300 303 300 296 295 295 295 295
314 311 309 306 304 304 304 307 312 316 313 312 310 309 307 306 307 306 305 304 305 302 306 305 307 306 305 304 303 298 303 302 302 302 304 298 297 298 298 299 294 295 294 294 294
314 309 305 303 303 303 303 305 313 314 313 308 310 309 308 305 306 304 302 301 301 305 305 305 302 304 302 304 303 299 303 300 299 299 297 297 298 302 295 294 295 296 294 293 294
317 310 305 303 302 302 304 303 312 309 308 309 307 305 305 309 303 301 303 303 298 299 304 304 303 301 298 300 299 298 295 300 299 287 293 297 297 296 294 294 294 294 293 293 293
319 308 302 302 301 301 301 305 305 305 309 310 309 305 302 309 306 302 299 301 298 297 298 300 299 299 300 298 294 293 294 295 294 288 291 293 293 293 293 293 294 293 293 292 291
319 301 303 301 301 306 301 300 303 304 310 309 307 306 304 306 302 302 298 297 297 295 296 295 296 297 294 293 291 293 292 292 292 293 291 291 292 292 293 293 292 293 292 291 291
313 298 304 303 307 305 303 301 306 309 308 307 306 305 304 302 301 301 302 299 295 294 292 293 294 292 291 291 291 291 291 291 291 291 291 292 292 293 292 293 292 291 290 291 290
304 300 302 306 307 303 305 307 308 307 306 306 305 304 299 301 301 301 299 294 294 292 292 293 294 289 292 292 291 291 291 292 292 292 292 292 291 293 292 292 290 290 290 290 290
308 303 306 310 308 304 304 306 308 306 305 304 300 297 297 298 296 298 297 294 294 293 294 293 293 293 291 292 291 291 292 292 292 292 291 292 292 291 291 290 290 290 290 290 290
308 303 306 309 307 306 305 306 307 306 303 300 297 298 299 298 296 297 295 293 293 293 294 294 293 294 294 294 292 291 292 292 292 292 292 292 291 290 289 289 290 290 290 289 288
314 305 302 305 307 308 307 306 306 304 303 302 300 298 297 299 299 296 294 293 294 292 292 292 292 292 291 292 292 292 293 292 291 291 290 289 289 290 290 290 290 289 287 286 286
312 311 306 305 305 308 308 307 306 304 302 302 299 298 296 297 295 295 294 294 293 293 293 292 292 289 288 290 290 288 290 291 289 288 288 288 289 289 290 290 288 286 285 286 282
Wind_Speed
14 15 17 18 20 22 22 24 26 26 26 30 33 30 19 9 8 8 13 11 9 9 10 10 9 12 6 4 4 2 3 2 4 5 6 5 3 4 10 12 13 12 19 25 28
14 15 17 18 19 21 21 22 24 24 25 30 33 30 9 6 7 12 11 9 10 10 9 9 9 12 4 3 2 4 3 7 4 4 5 7 7 8 5 8 9 17 27 22 24
14 16 16 18 19 20 20 21 22 24 23 30 34 24 9 2 4 8 8 8 9 9 9 7 6 6 3 3 3 2 5 3 5 12 10 7 13 4 2 6 20 20 31 31 29
15 16 17 18 19 19 19 20 22 24 24 31 34 19 10 5 2 4 7 11 12 9 8 6 5 3 2 0 1 2 9 7 3 2 4 7 15 7 9 20 27 25 25 31 39
14 16 17 19 19 18 18 20 22 24 24 32 33 15 2 6 5 5 11 14 11 9 7 6 4 2 0 3 5 2 5 10 7 17 16 14 17 9 15 20 18 20 25 40 36
15 16 18 19 20 19 19 20 22 24 21 31 30 9 1 5 4 6 9 11 15 14 10 7 5 6 2 1 1 4 10 25 15 12 3 6 6 5 8 17 24 27 34 29 29
14 16 18 20 21 21 20 20 23 23 21 31 26 3 9 6 5 8 8 11 16 15 10 7 4 2 3 3 4 5 6 10 2 4 0 6 5 6 12 20 38 31 30 26 23
14 17 19 20 21 21 21 20 21 22 21 33 17 3 5 6 9 11 10 7 12 10 8 8 5 2 1 5 5 4 3 5 8 9 5 8 6 1 9 33 31 33 32 22 24
15 16 19 20 21 21 20 20 20 18 26 26 6 3 5 4 6 14 13 9 6 7 6 7 3 3 3 3 5 6 5 5 11 7 8 4 17 3 30 22 25 27 24 23 32
16 17 19 21 22 22 22 22 20 12 28 14 3 2 3 2 3 13 15 6 3 6 4 8 6 3 4 6 3 7 5 4 8 8 5 13 19 20 24 25 20 23 26 25 30
16 17 19 21 21 21 24 26 25 5 27 9 10 3 3 6 3 13 14 3 9 11 6 7 6 1 2 1 3 5 4 11 6 7 7 15 24 25 16 18 15 23 23 25 32
16 17 18 20 20 17 22 17 12 9 12 11 4 2 3 8 2 12 10 5 6 5 6 6 2 2 4 2 2 4 5 14 9 2 2 13 35 18 11 13 20 20 20 26 32
16 16 18 19 20 16 17 17 16 16 4 4 2 1 2 6 2 8 11 4 5 4 2 4 5 4 2 4 5 3 5 6 11 17 9 12 21 20 9 19 24 26 19 27 27
15 16 17 17 11 17 13 17 16 15 4 3 2 1 2 4 1 8 6 5 3 1 1 5 3 1 4 3 2 3 1 7 11 14 14 9 15 12 4 9 8 20 16 32 31
15 16 16 15 14 13 14 15 15 4 5 3 1 1 3 1 5 2 8 2 3 2 5 6 2 2 3 2 1 6 4 6 10 17 8 5 3 5 8 9 9 14 21 28 28
15 16 15 14 13 10 13 13 9 5 6 2 1 5 3 4 5 8 3 4 3 3 1 6 2 1 3 1 4 5 6 10 2 3 1 3 3 7 3 4 11 12 24 31 33
15 15 15 13 11 11 10 8 5 3 3 2 2 3 1 4 3 6 4 7 2 6 3 7 2 2 4 3 5 11 6 5 5 4 5 5 13 4 4 5 5 10 33 47 49
16 15 15 13 12 8 3 5 4 5 6 2 1 2 5 2 0 4 3 2 5 2 0 1 4 4 2 3 2 2 2 3 7 3 15 14 6 2 5 27 24 28 39 50 48
16 16 16 14 12 8 4 2 7 7 2 1 5 2 2 2 1 1 2 5 3 2 4 1 5 3 4 1 2 1 2 1 3 3 3 5 6 18 10 18 23 21 41 42 42
17 16 17 16 13 8 3 7 6 5 4 2 5 4 4 4 2 2 5 3 5 1 1 1 5 2 2 4 7 6 0 1 3 4 6 11 14 6 18 20 17 27 40 43 48
15 6 8 10 10 7 5 8 6 7 8 7 7 5 6 6 5 4 4 1 3 2 4 2 2 2 3 3 3 2 2 1 3 3 4 5 13 2 19 14 24 30 39 44 48
10 3 9 12 6 3 4 6 5 6 7 7 4 9 8 8 6 5 6 2 7 8 4 0 3 3 7 7 5 6 5 4 3 5 4 10 17 19 10 26 33 35 43 48 51
7 8 12 19 5 4 5 5 8 7 7 7 7 6 2 7 4 6 4 5 9 5 6 6 0 4 5 3 2 3 4 4 3 5 15 6 8 7 30 28 35 37 46 55 56
10 3 7 20 11 6 5 6 7 9 4 5 4 6 4 5 1 4 4 6 6 4 6 5 4 7 7 5 1 9 10 8 5 5 8 14 28 27 27 26 32 41 50 62 61
15 8 11 5 10 13 9 5 9 8 7 8 1 6 7 6 4 5 3 4 5 7 5 4 5 6 9 12 10 13 21 14 11 15 12 25 24 25 25 26 35 49 55 60 61
19 10 9 6 7 20 17 12 18 4 8 5 6 10 8 7 8 8 7 5 5 4 5 3 3 3 6 15 12 15 18 15 16 17 15 17 23 19 36 38 42 50 64 58 49
35 27 17 9 8 9 10 14 13 10 10 10 10 7 7 8 7 5 10 11 10 9 6 6 2 1 6 5 6 9 9 11 8 7 7 13 25 18 27 31 43 49 53 48 59
Wind_Direction
25 23 21 19 16 10 10 7 6 7 3 358 353 351 1 55 91 64 44 31 17 356 349 341 334 348 5 30 50 95 71 201 234 176 260 266 266 252 280 267 269 254 267 300 310
18 17 16 15 13 9 9 5 4 3 1 357 351 352 20 117 109 54 38 18 359 352 358 353 353 358 27 41 33 71 107 218 207 205 261 288 276 292 288 287 278 282 315 322 317
12 10 10 10 10 8 5 4 2 359 352 351 353 355 21 99 139 35 33 24 12 0 3 0 358 360 52 7 21 157 207 204 246 258 281 288 297 298 235 292 294 319 326 330 333
5 2 2 4 5 5 1 0 0 355 351 349 350 354 10 118 92 36 42 5 345 352 8 355 348 9 81 354 288 288 250 241 274 255 318 286 296 287 224 277 307 321 327 348 337
356 356 357 358 357 358 356 355 355 351 352 347 346 345 26 85 91 67 357 2 33 20 355 352 32 41 92 291 314 206 286 301 282 291 270 275 269 265 267 316 326 340 338 343 334
350 351 350 350 350 351 351 352 350 350 351 345 342 343 115 87 78 7 25 46 29 21 12 17 357 331 312 289 217 302 301 297 309 319 243 180 255 342 306 338 334 334 334 338 336
342 344 346 345 346 347 348 349 348 348 349 342 339 5 72 86 54 31 49 32 24 4 356 11 2 328 300 304 293 308 336 320 276 350 276 286 284 225 350 340 326 334 339 352 26
337 338 343 343 343 344 345 349 348 343 343 340 338 57 92 84 60 37 21 8 11 337 2 13 10 92 222 302 353 9 62 355 305 360 304 14 283 191 334 333 326 338 351 32 47
328 334 342 341 341 341 344 349 347 337 349 341 20 67 121 97 58 30 7 347 333 335 40 19 26 42 7 34 8 7 306 300 324 349 341 43 300 186 328 330 327 342 37 65 29
321 335 342 340 338 340 346 348 352 338 345 348 60 109 115 334 67 14 0 1 331 14 8 18 19 39 31 40 316 286 306 247 286 295 327 300 294 309 340 337 338 45 46 42 23
319 334 340 335 337 342 347 356 8 347 341 336 314 289 321 2 167 8 359 31 6 40 21 13 38 285 261 224 266 264 269 283 281 285 346 309 302 316 358 336 45 44 44 32 17
317 332 336 332 335 344 352 17 15 323 305 311 322 315 336 355 343 0 5 27 37 58 353 8 294 277 289 167 294 317 319 307 297 182 1 302 295 314 340 326 82 46 51 25 17
315 327 329 329 334 344 353 5 352 340 302 297 311 332 343 346 22 359 14 15 68 71 59 174 257 308 306 343 341 290 272 302 284 316 217 266 298 317 355 75 47 34 35 17 5
308 319 322 329 335 340 345 349 341 340 49 268 249 236 317 328 103 23 23 9 46 59 296 236 288 15 19 320 222 296 67 267 301 332 299 38 289 333 312 113 59 24 31 3 356
300 311 319 322 324 333 336 338 333 343 355 247 206 275 324 35 319 11 33 20 132 270 95 257 271 360 355 258 228 256 324 273 287 288 323 266 230 274 17 11 8 16 5 0 354
295 306 313 313 316 329 334 333 327 36 258 357 319 346 11 19 359 317 11 68 78 86 35 250 356 66 177 125 68 286 332 294 323 0 278 171 115 306 60 352 8 359 360 356 349
290 301 302 303 305 318 330 336 19 164 328 251 249 54 56 292 346 25 41 13 36 3 13 334 24 72 21 30 355 20 16 319 342 338 252 351 333 224 62 59 355 2 354 349 339
290 295 292 287 286 294 323 43 191 241 248 34 343 230 222 8 268 351 94 114 19 67 139 150 321 159 6 110 220 312 141 140 294 270 299 314 226 276 40 13 3 353 344 337 331
294 295 285 276 268 258 165 122 219 213 223 338 329 328 268 258 259 31 115 155 199 210 202 263 262 75 70 299 133 41 61 260 280 353 336 252 264 302 19 353 348 338 335 325 321
296 296 275 264 249 214 120 224 229 196 135 102 177 206 250 215 235 227 196 172 185 199 272 169 298 360 259 120 33 123 117 54 32 316 289 285 303 264 343 336 331 331 326 322 319
289 276 242 227 209 177 197 222 245 218 184 175 199 245 226 213 214 213 217 125 165 74 64 121 157 262 234 168 153 113 104 132 194 192 222 293 294 310 323 316 327 321 317 315 315
256 232 209 193 164 201 196 200 196 200 206 242 197 210 200 179 203 241 223 58 153 145 135 320 137 265 240 293 186 120 162 166 147 267 238 276 274 283 286 325 318 318 315 314 314
230 222 195 185 208 222 239 244 211 177 199 193 219 196 127 177 217 192 131 128 153 153 164 171 159 330 347 22 317 165 181 192 218 264 257 251 266 301 312 312 321 319 318 314 315
210 218 198 204 224 215 192 224 219 209 219 193 159 123 128 193 196 185 145 195 182 205 149 151 202 207 226 249 128 269 256 257 205 244 269 257 288 299 309 318 325 322 320 315 316
206 222 208 198 219 215 186 179 198 196 195 177 223 202 175 183 177 196 135 151 200 183 170 166 231 229 252 271 264 267 271 272 253 249 257 283 288 297 309 320 324 323 318 316 315
213 193 190 256 211 198 199 203 214 188 169 191 217 203 191 186 191 185 154 178 181 145 153 178 270 317 265 244 251 256 260 266 266 266 270 276 286 307 314 321 326 326 317 317 320
224 228 219 203 164 183 214 213 207 164 217 191 211 161 191 215 170 173 163 174 158 156 160 160 215 38 266 339 303 275 232 229 254 243 240 286 303 319 321 324 324 320 311 321 321